Stove Prairie

Current Conditions

Time03/04/2021 09:45 PM MST
Location40.619167,-105.356944
Elevation7,349 FT
Air Temp34°F
Surface Temp29°F
Dew Point Temp22°F
PrecipitationNone
Relative Humidity60%
Visibility6,562 FT
Pressure781 MB

Click a photo to enlarge.

339°2 mph
Wind from @ 2 mph

Past 24 Hours

All Data

Previous 24h observations for Stove Prairie
Time Air Temp
(°F)
Surface
(°F)
Dew Point
(°F)
Precip. Relative
Humidity
Wind Direction Wind Speed (mph) Visibility (ft) Pressure
(mb)
09:45 PM342922None60NNW26,562781
09:30 PM353022None59N36,562781
09:15 PM342922None61N26,562781
09:00 PM342922None61NNE26,562780
08:45 PM353123None60NNE56,562780
08:30 PM353123None60N26,562780
08:15 PM353223None61NNE46,562780
08:00 PM353223None62N46,562780
07:45 PM353223None62N36,562780
07:30 PM353223None61N26,562779
07:15 PM353323None61NNW36,562779
07:00 PM343223None63NNW36,562779
06:45 PM353322None60NNW36,562779
06:30 PM353423None60N36,562779
06:15 PM353323None61N26,562778
06:00 PM353522None57N26,562778
05:45 PM353522None57NNE46,562778
05:30 PM353523None60N36,562778
05:15 PM353622None59NNW36,562778
05:00 PM353723None61NNW46,562777
04:45 PM353723None63NNW56,562777
04:30 PM353823None63NNW66,562777
04:15 PM343924None66NW66,562777
04:00 PM333924None68NNW76,562777
03:45 PM333924None71NNW66,562777
03:30 PM313926Light Snow78N66,562776
03:15 PM313826Light Snow80NNW66,562776
03:00 PM303726Light Snow84N66,562776
02:45 PM293326Light Snow87N51,804776
02:30 PM303526Light Snow82NNW63,668776
02:15 PM323724Light Snow71N46,562775
02:00 PM344020Light Rain54NNE46,562775
01:45 PM354322Light Snow59N36,562775
01:30 PM354423None59NE46,562774
01:15 PM344423Light Snow63NE46,562774
01:00 PM344321Light Snow59NE66,562774
12:45 PM374817None44ENE66,562774
12:30 PM395215None38E66,562774
12:15 PM384919None45NE46,562774
12:00 PM394922None50ESE56,562774
11:45 AM394922None50NNE46,562774
11:30 AM384721None50ENE66,562774
11:15 AM384620None47E76,562774
11:00 AM394622None50N86,562774
10:45 AM384522None50N66,562774
10:30 AM384422None54N56,562773
10:15 AM394223None53N56,562773
10:00 AM404422None47N36,562773
09:45 AM393820None46NNW26,562774
09:30 AM383521None50SW26,562774
09:15 AM373522None53SSW26,562774
09:00 AM363223None60N06,562774
08:45 AM353124None63SW36,562774
08:30 AM353024None64SSW56,562774
08:15 AM373119None47S116,562774
08:00 AM362911None35SSE26,562773
07:45 AM35299None32N06,562773
07:30 AM352811None35N06,562773
07:15 AM35288None32N06,562773
07:00 AM34268None34NNE26,562773
06:45 AM34278None32N06,562773
06:30 AM33278None35N06,562773
06:15 AM33288None34N06,562773
06:00 AM32268None36N06,562773
05:45 AM31268None38N06,562773
05:30 AM30258None39N26,562773
05:15 AM29248None41N06,562773
05:00 AM28239None44NW16,562773
04:45 AM27239None46NNW36,562773
04:30 AM27239None45N36,562773
04:15 AM26229None47NNW46,562773
04:00 AM28249None43NNW36,562773
03:45 AM27248None45NW46,562773
03:30 AM28238None44NNW46,562773
03:15 AM28248None44NNW46,562773
03:00 AM26218None46N46,562773
02:45 AM31209None39NNW56,562774
02:30 AM31228None38NNW26,562774
02:15 AM31248None38N06,562774
02:00 AM33248None35NNE16,562774
01:45 AM31248None38N06,562774
01:30 AM31258None38NW16,562775
01:15 AM31269None39NNW46,562775
01:00 AM292410None44NNW36,562775
12:45 AM272410None47NNW36,562775
12:30 AM29249None42NNW46,562775
12:15 AM31269None40NW46,562775
12:00 AM30249None41NNW46,562775
11:45 PM33268None35NNW36,562775
11:30 PM32269None37NNW46,562775
11:15 PM33269None35NNW46,562775
11:00 PM35287None31NNW26,562775
10:45 PM35259None33NNW26,562775
10:30 PM36267None30NNW26,562775
10:15 PM36297None30NNW36,562776
10:00 PM36279None32NW26,562776

Red Feather Lakes

Current Conditions

Time03/04/2021 09:45 PM MST
Location40.790278,-105.574167
Elevation8,238 FT
Air Temp30°F
Surface Temp26°F
Dew Point Temp20°F
PrecipitationNone
Relative Humidity65%
Visibility6,562 FT
Pressure755 MB

Click a photo to enlarge.

350°2 mph
Wind from @ 2 mph

Past 24 Hours

All Data

Previous 24h observations for Red Feather Lakes
Time Air Temp
(°F)
Surface
(°F)
Dew Point
(°F)
Precip. Relative
Humidity
Wind Direction Wind Speed (mph) Visibility (ft) Pressure
(mb)
09:45 PM302620None65N26,562755
09:30 PM312720None65NNW36,562755
09:15 PM312721None65NW56,562755
09:00 PM312822None68NNW66,562755
08:45 PM312922None69NW76,562755
08:30 PM312822None70NW56,562754
08:15 PM312822None70NW66,562754
08:00 PM302922None71NW76,562754
07:45 PM302922None71NNW66,562754
07:30 PM302922None71NNW76,562754
07:15 PM302922None71NW56,562753
07:00 PM312921None68NW36,562753
06:45 PM303022None70N46,562753
06:30 PM313122None70N106,562753
06:15 PM313122None69N76,562753
06:00 PM323222None68N66,562753
05:45 PM323322None65NNE76,562752
05:30 PM323421None64NNE86,562752
05:15 PM333621None62NNE96,562752
05:00 PM333819None56N76,562752
04:45 PM323921None65WNW86,562751
04:30 PM314021None65WNW96,562751
04:15 PM314022None70WNW56,562751
04:00 PM293822Light Snow73NNW66,562751
03:45 PM293822Light Snow75NNE76,562751
03:30 PM283923Light Snow80NNW86,562751
03:15 PM283524Light Snow85N63,999751
03:00 PM283722Light Snow77NE86,562751
02:45 PM293823Light Snow76NE76,562750
02:30 PM314019Light Snow63NE106,562750
02:15 PM314220None63E76,562749
02:00 PM304222None73N86,562749
01:45 PM304322None72NNE86,562749
01:30 PM314422Light Rain69NNE106,562749
01:15 PM324620Light Rain60NNE126,562749
01:00 PM334619None56ENE126,562749
12:45 PM344520None55ENE136,562748
12:30 PM344321Light Rain58ENE126,562748
12:15 PM354220None53E86,562748
12:00 PM364718None47ESE76,562748
11:45 AM364720None53NNE66,562748
11:30 AM354522None59NNW56,562748
11:15 AM334323None65NNW86,562748
11:00 AM324124None73N86,562748
10:45 AM324424None73N56,562748
10:30 AM313723None73NW66,562748
10:15 AM293423Light Snow76NW86,562748
10:00 AM293322Light Snow73WSW106,562748
09:45 AM283022Light Snow79W96,562748
09:30 AM282821Light Snow75WSW56,562748
09:15 AM282722Light Snow78N06,562748
09:00 AM282622Light Snow77SW74,993748
08:45 AM312816Light Snow52SW156,562748
08:30 AM313110None42SW96,562748
08:15 AM292911None47WSW36,562748
08:00 AM282813None53WSW46,562748
07:45 AM272711None49N06,562748
07:30 AM262612None55W46,562747
07:15 AM262610None51W66,562747
07:00 AM272511None52NNW26,562747
06:45 AM262510None49NNE16,562747
06:30 AM252510None52W36,562747
06:15 AM25258None49WSW46,562747
06:00 AM24258None50W46,562747
05:45 AM25268None50N06,562747
05:30 AM23247None50W36,562747
05:15 AM23248None53WNW36,562747
05:00 AM24237None49WSW16,562747
04:45 AM23237None50W46,562747
04:30 AM23226None49WSW66,562747
04:15 AM23237None50WNW36,562747
04:00 AM22246None49WSW46,562748
03:45 AM21236None52WSW56,562748
03:30 AM20226None56WSW46,562748
03:15 AM21246None53W46,562748
03:00 AM20226None55WSW46,562748
02:45 AM22236None50W46,562748
02:30 AM22236None49WSW36,562748
02:15 AM22236None49WSW46,562748
02:00 AM22226None50W56,562748
01:45 AM24236None46WSW46,562748
01:30 AM22236None49WSW46,562749
01:15 AM24237None47WSW36,562749
01:00 AM24237None47WSW66,562749
12:45 AM24247None47WSW66,562749
12:30 AM25267None46WSW36,562749
12:15 AM24257None46WSW46,562749
12:00 AM24257None47WSW56,562749
11:45 PM24267None47W66,562749
11:30 PM25267None47WSW66,562750
11:15 PM25277None46W56,562750
11:00 PM25287None46W76,562750
10:45 PM24288None48W56,562750
10:30 PM25298None48WSW66,562750
10:15 PM25288None48W66,562750
10:00 PM25308None47WSW66,562750

Pinewood Reservoir

Current Conditions

Time03/04/2021 09:45 PM MST
Location40.3647,-105.2867
Elevation6,580 FT
Air Temp33°F
Surface Temp33°F
Dew Point Temp24°F
PrecipitationNone
Relative Humidity69%
Visibility6,562 FT
Pressure797 MB
Level of Grip82.0
State of Surface4.0

Click a photo to enlarge.

258°5 mph
Wind from @ 5 mph

Past 24 Hours

All Data

Previous 24h observations for Pinewood Reservoir
Time Air Temp
(°F)
Surface
(°F)
Dew Point
(°F)
Precip. Relative
Humidity
Wind Direction Wind Speed (mph) Visibility (ft) Pressure
(mb)
Level of GripState Surface
09:45 PM333324None69WSW56,562797824
09:30 PM343324None68WSW56,562797824
09:15 PM343425None68WSW46,562797824
09:00 PM363525None65WSW26,562797824
08:45 PM353624None63NW36,562797824
08:30 PM353625None69NE36,562796824
08:15 PM343625None70ENE56,562796824
08:00 PM353725None67NE66,562796824
07:45 PM363723None58NE56,562796824
07:30 PM363723None58NE76,562796824
07:15 PM383822None50WNW36,562795824
07:00 PM383822None53W36,562795824
06:45 PM373822None55NNE66,562795824
06:30 PM373724None59NE36,562795824
06:15 PM383820None49NNE66,562795824
06:00 PM393820None46NNE96,562794825
05:45 PM403919None43NNE76,562794816
05:30 PM394020None46NNW46,562794816
05:15 PM384021None50W66,562793806
05:00 PM384023None54W56,562793796
04:45 PM374123None56W66,562793786
04:30 PM374224None58NNW36,562793766
04:15 PM374224None60W66,562793756
04:00 PM364225None66W96,562792736
03:45 PM354226None69W66,562792726
03:30 PM354327None74WSW86,562792706
03:15 PM344429None82W76,562792696
03:00 PM334329Light Snow84WNW55,741792696
02:45 PM334330Light Snow89NE86,562792726
02:30 PM324529None89NE106,562791726
02:15 PM324329Light Snow87N76,562791766
02:00 PM334328Light Rain79NNE116,562791824
01:45 PM354526None68NE96,562791824
01:30 PM364625Light Rain65NE136,562790824
01:15 PM384822None52NE146,562790824
01:00 PM384916None40NE146,562790824
12:45 PM395114None37NNE76,562790824
12:30 PM385015None38NE156,562790824
12:15 PM385211None31NE166,562790824
12:00 PM395212None32NE136,562790824
11:45 AM395311None31NE126,562790824
11:30 AM395412None32NNE136,562790824
11:15 AM385511None32NE146,562790824
11:00 AM385312None34NE156,562790824
10:45 AM385315None37NE136,562790824
10:30 AM385316None41NE106,562790824
10:15 AM375416None42NE116,562789824
10:00 AM425524None50N66,562789824
09:45 AM374919None47NNW46,562789824
09:30 AM414924None50WSW116,562790824
09:15 AM394623None52WSW146,562790824
09:00 AM394223None53WSW106,562790824
08:45 AM394017None40W96,562790824
08:30 AM403710None29WNW96,562790824
08:15 AM39368None26N36,562790824
08:00 AM38369None30W46,562790824
07:45 AM353511None36WSW36,562789824
07:30 AM333314None45WSW76,562789824
07:15 AM363410None34SSW76,562789824
07:00 AM353311None37SW46,562789824
06:45 AM36339None33S26,562789824
06:30 AM343210None35WSW36,562789824
06:15 AM37328None30ENE66,562789824
06:00 AM37328None30NE46,562789824
05:45 AM38337None28ESE26,562789824
05:30 AM34319None34SSW46,562789824
05:15 AM34318None34SW46,562789824
05:00 AM313010None40SSW66,562789824
04:45 AM322810None40SW56,562790824
04:30 AM37308None30S46,562789824
04:15 AM37318None30NE26,562790824
04:00 AM37318None30WSW16,562790824
03:45 AM36299None32SW36,562789824
03:30 AM35318None33S46,562790824
03:15 AM32299None37WSW56,562790824
03:00 AM32309None38SSW46,562790824
02:45 AM37299None30WSW46,562790824
02:30 AM39328None27S26,562790824
02:15 AM34318None34SW46,562790824
02:00 AM33318None35WSW56,562790824
01:45 AM34329None35SW66,562790824
01:30 AM323110None39WSW66,562791824
01:15 AM313110None40SSW56,562791824
01:00 AM35319None33WSW56,562791824
12:45 AM38348None28W36,562791824
12:30 AM36339None31WSW46,562791824
12:15 AM36328None31WSW46,562791824
12:00 AM39338None27W46,562791824
11:45 PM38358None28SW36,562791824
11:30 PM37348None29WSW46,562791824
11:15 PM38349None29WSW46,562791824
11:00 PM38358None29SW56,562791824
10:45 PM34359None35SW56,562791824
10:30 PM37359None31SW56,562791824
10:15 PM37359None30WSW56,562792824
10:00 PM39378None26SW46,562792824

Masonville

Current Conditions

Time03/04/2021 09:45 PM MST
Location40.4875,-105.2108
Elevation5,387 FT
Air Temp38°F
Surface Temp38°F
Dew Point Temp29°F
PrecipitationNone
Relative Humidity70%
Visibility6,562 FT
Pressure839 MB

Click a photo to enlarge.

310°2 mph
Wind from @ 2 mph

Past 24 Hours

All Data

Previous 24h observations for Masonville
Time Air Temp
(°F)
Surface
(°F)
Dew Point
(°F)
Precip. Relative
Humidity
Wind Direction Wind Speed (mph) Visibility (ft) Pressure
(mb)
09:45 PM383829None70NW26,562839
09:30 PM383929None70NNW36,562840
09:15 PM384029None68WNW26,562839
09:00 PM384029None69N06,562839
08:45 PM394129None67E56,562839
08:30 PM404228None62ESE26,562839
08:15 PM414327None58SSE36,562839
08:00 PM434326None50SW46,562838
07:45 PM444425None47NNE56,562838
07:30 PM444425None46N66,562838
07:15 PM444425None47NNE66,562838
07:00 PM454425None46NE56,562837
06:45 PM444426None48N36,562837
06:30 PM44452650W10837
06:15 PM454525None46NNW46,562837
06:00 PM464624None42N56,562837
05:45 PM464623None41NNW66,562836
05:30 PM464625None43N76,562836
05:15 PM454626None47NNW106,562835
05:00 PM444726None49NW96,562835
04:45 PM444727None51NNW106,562835
04:30 PM444727None52NW166,562835
04:15 PM434727None53NW156,562834
04:00 PM424628None56NW176,562834
03:45 PM424628None58NW196,562834
03:30 PM414630None65NW106,562834
03:15 PM414630None65NW126,562834
03:00 PM404831None69WNW106,562834
02:45 PM404931None71WNW76,562834
02:30 PM384831Light Rain76NW76,562834
02:15 PM395031None73NNW86,562834
02:00 PM384931Light Rain76N76,562834
01:45 PM394931Light Rain72N96,562834
01:30 PM425030Light Rain63NNW116,562833
01:15 PM435427None52NNW96,562833
01:00 PM445626None49N166,562833
12:45 PM445728None51NNW116,562833
12:30 PM465720None36N46,562832
12:15 PM466016None29ENE76,562832
12:00 PM486314None25NE46,562832
11:45 AM476313None25N36,562832
11:30 AM476313None26NW96,562832
11:15 AM476114None27N46,562832
11:00 AM476014None27NNE56,562832
10:45 AM466015None27NNW56,562832
10:30 AM465815None29NE36,562832
10:15 AM465715None29NNE66,562832
10:00 AM476115None28NNE66,562832
09:45 AM475814None25NNE136,562831
09:30 AM475617None29NE76,562832
09:15 AM454915None30NNE136,562831
09:00 AM424517None36NE96,562831
08:45 AM424316None34NW46,562831
08:30 AM404216None38N56,562832
08:15 AM404117None40NNE36,562832
08:00 AM434114None31NW46,562831
07:45 AM414115None34NW56,562831
07:30 AM404115None35NNW46,562831
07:15 AM374016None42NW36,562831
07:00 AM36381440N20831
06:45 AM363714None41NNE16,562831
06:30 AM353714None41N16,562831
06:15 AM363714None41NE26,562831
06:00 AM353713None41ENE16,562831
05:46 AM363713None38N06,562832
05:30 AM363613None38N06,562831
05:15 AM363513None38ENE26,562832
05:00 AM353213None40NNW36,562832
04:45 AM333613None43NNW26,562832
04:30 AM333413None44NW26,562832
04:15 AM333513None44N06,562832
04:00 AM353413None40WNW26,562832
03:45 AM343513None41N16,562832
03:30 AM343513None41N06,562832
03:15 AM373514None39WSW16,562832
03:00 AM363713None38ENE26,562832
02:45 AM383513None35WNW26,562832
02:30 AM383613None34NNW46,562832
02:15 AM383713None35NNW46,562832
02:00 AM383713None35NNW40832
01:45 AM383713None35NNW56,562832
01:30 AM383713None36NW66,562833
01:15 AM383813None37NNW66,562833
01:00 AM373813None37N06,562833
12:45 AM383813None36W26,562833
12:30 AM403913None33NW56,562833
12:15 AM394013None34N26,562833
12:00 AM424013None30NNW56,562833
11:45 PM414013None32NNW56,562833
11:30 PM404013None33NNW76,562833
11:15 PM404113None33NNW76,562833
11:00 PM414113None32NNW66,562833
10:30 PM424213None32NNW56,562833
10:15 PM424214None32NNW66,562833
10:00 PM424313None31NNW46,562833

Show All Locations

Page refreshes in :